This is the latest recevied weather packets stored in our database for station/object W4OTS. If no packets are shown the sender has not sent any weather packets the latest 10 day(s).
| Time | Temp. | Humidity | Pressure | Rain* | Wind** | Luminosity | Snow |
|---|---|---|---|---|---|---|---|
| 1777412958 | 17.78° C | 88% | 1018.9 hPa | 0 mm | - | 33 W/m² | - |
| 1777412656 | 17.22° C | 89% | 1019 hPa | 0 mm | - | 34 W/m² | - |
| 1777412355 | 17.22° C | 89% | 1019 hPa | 0 mm | - | 42 W/m² | - |
| 1777412048 | 17.22° C | 89% | 1019.2 hPa | 0 mm | - | 40 W/m² | - |
| 1777411743 | 17.22° C | 88% | 1019.2 hPa | 0 mm | - | 50 W/m² | - |
| 1777411438 | 17.22° C | 89% | 1019.3 hPa | 0 mm | - | 75 W/m² | - |
| 1777411133 | 17.22° C | 87% | 1019.4 hPa | 0 mm | - | 94 W/m² | - |
| 1777410832 | 17.22° C | 88% | 1019.7 hPa | 0 mm | - | 96 W/m² | - |
| 1777410532 | 17.78° C | 88% | 1019.8 hPa | 0 mm | - | 85 W/m² | - |
| 1777410231 | 17.78° C | 88% | 1019.7 hPa | 0 mm | - | 105 W/m² | - |
| 1777409927 | 17.22° C | 87% | 1019.8 hPa | 0 mm | - | 115 W/m² | - |
| 1777409622 | 17.22° C | 87% | 1020 hPa | 0 mm | - | 139 W/m² | - |
| 1777409318 | 17.22° C | 88% | 1019.9 hPa | 0 mm | - | 104 W/m² | - |
| 1777409014 | 17.22° C | 86% | 1019.9 hPa | 0 mm | - | 145 W/m² | - |
| 1777408710 | 17.22° C | 88% | 1019.7 hPa | 0 mm | - | 121 W/m² | - |
| 1777408401 | 17.22° C | 86% | 1019.9 hPa | 0 mm | - | 132 W/m² | - |
| 1777408101 | 17.78° C | 86% | 1019.9 hPa | 0 mm | - | 206 W/m² | - |
| 1777407797 | 17.22° C | 89% | 1020 hPa | 0 mm | - | 170 W/m² | - |
| 1777407493 | 17.22° C | 87% | 1019.8 hPa | 0 mm | - | 144 W/m² | - |
| 1777407187 | 17.22° C | 89% | 1020.2 hPa | 0 mm | - | 178 W/m² | - |
| 1777406883 | 16.67° C | 88% | 1020.2 hPa | 0 mm | - | 157 W/m² | - |
| 1777406578 | 16.67° C | 89% | 1020.4 hPa | 0 mm | - | 181 W/m² | - |
| 1777406274 | 16.67° C | 89% | 1020.2 hPa | 0 mm | - | 168 W/m² | - |
| 1777405973 | 16.67° C | 89% | 1020.3 hPa | 0 mm | - | 200 W/m² | - |
| 1777405670 | 16.67° C | 89% | 1020.5 hPa | 0 mm | - | 151 W/m² | - |
* Rain latest hour (hover to see other rain measurements)
** Current wind speed in m/s (hover to see current wind gust speed)